Погода в Львове

Поиск расширенной информации на нашем сайте:

Полезная информация:

Новости сайта



02.01.2020
Опубликован Долгосрочный прогноз погоды по городам России и ближнего зарубежья на январь 2020 года.
Карты: Прогноз на январь и февраль 2020 года, Сравнение прогнозируемой аномалии приземной температуры воздуха на январь 2020 года по разным моделям.




Погода в Львове - сегодня

Время (UTC), дата Ветер
(°,м/с) 
Видим.   Явления Облачность Т
(°С)
Тd
(°С)
f(%) Тe
(°С)
Pmin
(гПа)
dP
(гПа)
Po
(мм)
O2
(г/м3)
Тmin Tmax R s Состояние
почвы
21 22.10.20 тихо ()   10 км    6/0 верхняя 
[Ci fib]
+5.9 +5.2 95 +6  1020.7  0.2  736  289           
00 23.10.20 тихо ()   10 км    4/0 верхняя 
[Ci fib]
+4.7 +4 95 +5  1019.9  -0.9  735  291           
03 23.10.20 тихо ()   10 км    3/0 верхняя 
[Ci fib]
+2.6 +1.8 94 +3  1019.4  -0.9  735  293           
06 23.10.20 тихо ()   10 км    6/0 верхняя 
[Ci fib]
+5 +4.1 94 +5  1018.8  -0.2  735  290  +1.9         
09 23.10.20 260 (З) 10 км    8/0 верхняя 
[Ci fib]
+14.2 +8 66 +14  1017.3  -0.2  734  280           
12 23.10.20 220 (ЮЗ) 10 км    10/0 средняя 
[Ac As]
+15.9 +9.3 65 +17  1015.7  -1.3  733  278           
15 23.10.20 240 (ЮЗ) 10 км    10/0 средняя 
[Ac As]
+15.1 +9.9 71 +16  1015.2  -0.6  733  278           
18 23.10.20 240 (ЮЗ) 10 км    9/0 средняя 
[Ac trans]
+12.7 +9.2 79 +14  1015.5  733  281    +16.3       
21 23.10.20 тихо ()   9000 м  дымка  6/0 верхняя 
[Ci fib]
+8.9 +7.8 93 +9  1015  -0.9  732  284           
00 24.10.20 тихо ()   10 км    8/8 1000 м 
[Sc]
+9.7 +8.6 93 +10  1014.2  0.7  732  283           
03 24.10.20 тихо ()   8000 м  дымка  4/0 средняя 
[Ac trans]
+7.7 +7 95 +8  1013.8  -0.7  731  285           
06 24.10.20 тихо ()   9000 м  дымка{туман}  8/0 средняя 
[Ac trans]
+8.5 +8.3 99 +9  1014.2  0.5  732  284  +6.7         
09 24.10.20 250 (З) 10 км    6/0 средняя 
[Ac trans]
+14.3 +9.9 75 +16  1013.7  0.3  732  278           
12 24.10.20 280 (З) 10 км    8/8 750 м 
[Sc]
+15.3 +10.7 74 +18  1014.2  0.7  732  277           
15 24.10.20 290 (З) 10 км    10/10 450 м 
[Sc]
+13.9 +11.1 83 +17  1015.5  733  279           
18 24.10.20 тихо ()   5000 м  дымка{морось}  8/8 200 м 
[St]
+11.4 +10.3 93 +13  1017.5  1.6  734  282    +15.9  0.0     
21 24.10.20 тихо ()   0300 м  туман  ?/?  
+7.7 +7.6 99 +8  1018.4  0.4  735  287           
00 25.10.20 тихо ()   0200 м  туман  ?/?  
+8.4 +8.2 99 +8  1018.4  0.1  735  286           
03 25.10.20 150 (ЮВ) 0500 м  туман  ?/?  
+4.6 +4.6 100 +5  1018.9  -0.1  735  290           
06 25.10.20 130 (ЮВ) 0200 м  туман  ?/?  
+7.7 +7.7 100 +8  1018.7  0.3  735  287  +4.3         
09 25.10.20 140 (ЮВ) 8000 м  дымка{туман}  9/9 240 м 
[St]
+10.4 +9.8 96 +11  1018  -0.3  735  283           
12 25.10.20 110 (В) 10 км  {туман}  10/10 420 м кучево-дожд. 
[Cb calv]
+12.2 +9.7 85 +13  1016.4  -1.3  734  281           
15 25.10.20 110 (В) 10 км  в посл. час ливневой дождь  10/10 420 м кучево-дожд. 
[Cb calv]
+11.4 +9.8 90 +13  1015.3  -1.2  733  282           
18 25.10.20 140 (ЮВ) 7000 м  дымка{ливн. осадки}  10/10 100 м 
[St]
+11.4 +10.3 93 +12  1015.1  -0.1  733  281    +12.4  0.4     
21 25.10.20 150 (ЮВ) 6000 м  дымка  10/10 180 м 
[St]
+11.8 +10.9 94 +14  1014.6  -0.5  732  281           
Время (UTC), дата Ветер
(°,м/с) 
Видим.   Явления Облачность Т
(°С)
Тd
(°С)
f(%) Тe
(°С)
Pmin
(гПа)
dP
(гПа)
Po
(мм)
O2
(г/м3)
Тmin Tmax R s Состояние
почвы

Для получения пояснительной информации подведите курсор к названию столбца.

ПОГОДА в Львове - архив

Всё, что Вы хотите узнать о погоде в Львове - удобно и подробно!

Выберите нужную дату (начиная с 1 января 2019* года) и нажмите кнопку "Найти".
Будут отображены архивные сводки погоды по пункту Львов, начиная с указанной даты.


Отображать данные в формате CSV (для использования в таблицах Excel)


Внимание! Наш архив погоды предназначен исключительно для личного некоммерческого использования в познавательных целях. Если Вам необходимы официальные справки о состоянии погоды (для производственных, юридических, коммерческих и т.п. целей), обращайтесь в органы Росгидромета.

*Примечание: данная дата относится к архиву по метеостанциям СССР (Россия, СНГ, Балтия).
Архив по метеостанциям Зарубежной Европы и Азии (кроме Китая) хранится 10 дней, по другим регионам земного шара (Китай, Африка, Америка, Австралия, Океания) - 1 день.

Львов - район местоположения метеостанции


Название, широта, долгота, высота метеостанции:
Львов 49.8°ш. 23.9°д. 323 м над ур. моря [Украина]

Дополнительная информация

В oтличие oт бoльшинства пoгoдных сайтoв мы публикуем пoдрoбную метеoинфoрмацию в детальнoм прoфессиoнальнoм фoрмате.

Характеристики температуры и влажнoсти вoздуха измеряются на высoте 2 м в тени вдали oт зданий и деревьев.
Скoрoсть ветра измеряется на высoте 10 м (на урoвне рoста челoвека скoрoсть ветра ниже в 1.5-2 раза). Если метеoстанция нахoдится в гoрoде или в лесу, тo скoрoсть ветра занижена на 2-4 м/с пo сравнению с oткрытым местoм. Скoрoсть ветра над акватoриями крупных рек и oзёр, а также на вершинах хoлмoв на 2-5 м/с выше, чем в oбычных услoвиях.
Атмoсфернoе давление в разных тoчках местнoсти мoжет значительнo oтличаться oт давления на метеoстанции, в зависимoсти oт услoвий рельефа (при пoдъёме на 10 м давление пoнижается примернo на 1 мм рт.ст.).